Flag for South Africa Weather past 2 weeks in Port Elizabeth, South Africa

Now
63 °F

Clear.


Feels Like: 63 °F
Forecast: 62 / 70 °F
Wind: 13 mph from East

Location: Port Elizabeth Airport

Current Time: Oct 21, 2014 at 1:55:44 AM

Latest Report: Oct 21, 2014 at 1:00 AM


Visibility: 10 mi

Pressure: 30.18 "Hg

Humidity: 83%

Dew point: 57 °F

Location of Port ElizabethLocation

Historic Weather in Port Elizabeth — Graph

°F

Port Elizabeth temperature yesterday

Maximum temperature yesterday: 70 °F (at 1:00 PM)
Minimum temperature yesterday: 61 °F (at 2:00 AM)
Average temperature yesterday: 65 °F

Past Weeks' High & Low Weather Summary

 TemperatureHumidityPressure
High82 °F (Oct 6, 1:00 PM)94% (Oct 6, 2:00 AM)30.39 "Hg (Oct 6, 2:00 AM)
Low46 °F (Oct 18, 5:00 AM)42% (Oct 6, 3:00 PM)29.80 "Hg (Oct 6, 6:00 PM)
Average63 °F73%30.07 "Hg
* Reported Midnight between Oct 5 and Oct 6 — Midnight between Oct 20 and Oct 21, Port Elizabeth, Weather by CustomWeather, © 2014

Note: Actual official high and low records may vary slightly from our data, if they occured in-between our weather recording intervals... More about our weather records

Advertising

Port Elizabeth weather history for previous 24 hours

 ConditionsComfort  
Time TempWeatherWind HumidityBarometerVisibility
12:00 AM
Oct 21
63 °FPassing clouds.13 mph83%30.18 "HgN/A
11:00 PM
Oct 20
63 °FClear.13 mph83%30.18 "Hg10 mi
10:00 PM63 °FPassing clouds.15 mph83%30.18 "HgN/A
9:00 PM63 °FClear.16 mph83%30.18 "Hg10 mi
8:00 PM64 °FPassing clouds.17 mph78%30.18 "HgN/A
7:00 PM64 °FPassing clouds.17 mph78%30.15 "HgN/A
6:00 PM64 °FPassing clouds.18 mph78%30.12 "HgN/A
5:00 PM66 °FPassing clouds.16 mph73%30.12 "HgN/A
4:00 PM68 °FPassing clouds.17 mph69%30.12 "HgN/A
3:00 PM68 °FPassing clouds.20 mph69%30.12 "HgN/A
2:00 PM68 °FPassing clouds.20 mph69%30.15 "HgN/A
1:00 PM70 °FPassing clouds.18 mph60%30.15 "HgN/A
12:00 PM68 °FPassing clouds.17 mph64%30.15 "HgN/A
11:00 AM68 °FPassing clouds.18 mph60%30.18 "HgN/A
10:54 AM68 °FPassing clouds.18 mph64%30.18 "HgN/A
10:00 AM68 °FPartly sunny.18 mph64%30.18 "HgN/A
9:00 AM66 °FPartly sunny.15 mph68%30.18 "HgN/A
8:00 AM66 °FPassing clouds.17 mph68%30.15 "HgN/A
7:00 AM64 °FScattered clouds.12 mph78%30.15 "HgN/A
5:00 AM63 °FPassing clouds.12 mph83%30.12 "HgN/A
4:00 AM63 °FPassing clouds.13 mph77%30.09 "HgN/A
3:00 AM61 °FClear.13 mph83%30.09 "Hg10 mi
2:00 AM61 °FPassing clouds.8 mph83%30.09 "HgN/A
1:00 AM63 °FPassing clouds.10 mph77%30.12 "HgN/A
Weather by CustomWeather, © 2014

See weather overviewHow to use our weather pages